Terminal Aerodrome Forecast
Issued by NWS Northern Indiana

Home | Current Version | Previous Version | Text Only | Print | Product List | Glossary On
Versions: 1 2 3 4 5 6 7 8 9 10 11 12 13 14 15 16 17 18 19 20 21 22 23 24
499
FTUS43 KIWX 201735
TAFFWA
TAF
KFWA 201735Z 2018/2118 06007KT P6SM OVC015
     FM202000 05007KT P6SM BKN025
     FM210000 06006KT P6SM SCT025 BKN200
     FM210400 06008KT P6SM BKN025
     FM211300 08008KT 5SM -SHRA BR VCTS SCT015CB OVC025=

USA.gov is the U.S. government's official web portal to all federal, state and local government web resources and services.